[[{"header":{"parameterUnit":"m.s-1","parameterCategory":1,"la1":30.2991,"la2":30.254,"lo1":-89.0895,"lo2":-89.0444,"dy":0.0017,"dx":0.0017,"nx":28,"ny":28,"refTime":"2024-12-23T09:00:00:Z","depth":0,"parameterNumber":2,"parameterNumberName":"U-component_of_WINDS"},"data":[0,0,0,0,0,0,0,0,0,0,0,0,0,0,0,0,0,0,0,0,0,0,0,0,0,0,0,0,0,0,0,0,0,0,0,0,0,0,0,0,0,0,0,0,0,0,0,0,0,0,0,0,0,0,0,0,0,0,-2.7498,-2.7499,0,-2.7537,-2.7538,-2.7538,-2.7448,-2.7445,-2.7443,-2.744,-2.7479,-2.7483,-2.7487,0,0,0,0,0,0,0,0,0,0,0,0,0,-2.7345,-2.7348,-2.7498,-2.7499,-2.7499,-2.7537,-2.7538,-2.7538,-2.7449,-2.7445,-2.7442,-2.7439,-2.7478,-2.7482,-2.7487,0,0,0,0,0,0,0,0,0,0,0,0,0,-2.7401,-2.7349,-2.7498,-2.7459,-2.7456,-2.7537,-2.7538,-2.7539,-2.745,-2.7445,-2.7441,-2.7437,-2.7477,-2.7482,-2.7488,-2.7608,0,0,-2.7505,-2.7507,0,0,0,0,0,0,0,0,-2.7398,-2.7406,-2.7465,-2.7462,-2.7459,-2.7484,-2.7498,-2.7562,-2.7451,-2.7452,-2.744,-2.7435,-2.7484,-2.7489,-2.7506,-2.761,-2.7612,-2.7505,-2.7508,-2.7511,-2.7512,0,0,0,0,0,0,0,-2.7394,-2.7404,-2.7514,-2.7465,-2.7462,-2.7439,-2.7443,-2.751,-2.7492,-2.7452,-2.7445,-2.7451,-2.7482,-2.75,-2.7506,-2.7612,-2.7505,-2.751,-2.7513,-2.7516,-2.7817,-2.7821,0,0,0,0,0,0,-2.7395,-2.7402,-2.7513,-2.7515,-2.7417,-2.7446,-2.7449,-2.748,-2.7491,-2.7488,-2.7455,-2.7447,-2.7493,-2.7499,-2.7507,-2.7649,-2.7511,-2.7516,-2.7519,-2.7812,-2.7818,-2.7823,0,0,0,0,0,0,-2.7392,-2.7406,-2.7511,-2.7457,-2.7468,-2.7453,-2.7488,-2.7483,-2.7502,-2.7493,-2.7489,-2.7477,-2.749,-2.7499,-2.7584,-2.7649,-2.7519,-2.7524,-2.7807,-2.7814,-2.782,-2.7933,0,0,0,0,0,0,-2.7388,-2.7405,-2.7452,-2.7458,-2.7472,-2.7588,-2.7492,-2.7487,-2.7512,-2.7502,-2.7513,-2.7511,-2.7487,-2.7576,-2.7589,-2.7654,-2.7528,-2.7801,-2.781,-2.7818,-2.7924,-2.7943,-2.796,0,0,0,0,0,-2.7383,-2.7482,-2.7454,-2.7468,-2.7529,-2.7592,-2.7599,-2.757,-2.7517,-2.7563,-2.7557,-2.7511,-2.7639,-2.7585,-2.7599,-2.7667,-2.7797,-2.7807,-2.7817,-2.7916,-2.794,-2.796,0,0,0,0,0,0,-2.7483,-2.7482,-2.7452,-2.7555,-2.7574,-2.7576,-2.7634,-2.7596,-2.763,-2.762,-2.7581,-2.7585,-2.7677,-2.768,-2.762,-2.7784,-2.7709,-2.7723,-2.7779,-2.7801,-2.7819,-2.7817,-2.7533,0,0,0,0,0,-2.7517,-2.7569,-2.7565,-2.7657,-2.7668,-2.765,-2.7676,-2.7651,-2.7669,-2.7677,-2.7677,-2.7696,-2.7741,-2.7771,-2.7812,-2.7923,-2.7925,-2.7977,-2.7995,-2.801,-2.8023,-2.8082,-2.8105,-2.7857,-2.7857,-2.7857,0,0,-2.7588,-2.7594,-2.7629,-2.7677,-2.7689,-2.7743,-2.7657,-2.7717,-2.7757,-2.7686,-2.7766,-2.7767,-2.7785,-2.7884,-2.7928,-2.789,-2.8091,-2.8023,-2.8035,-2.804,-2.8095,-2.8118,-2.8139,-2.7864,-2.7863,-2.7862,0,0,-2.7746,-2.7755,-2.7833,-2.7846,-2.7865,-2.7852,-2.7871,-2.7879,-2.7877,-2.7956,-2.7904,-2.795,-2.8028,-2.8043,-2.8061,-2.8223,-2.8181,-2.8237,-2.8332,-2.839,-2.841,-2.8427,-2.8485,-2.8506,-2.825,-2.825,-2.825,0,-2.7832,-2.7911,-2.7877,-2.7942,-2.7964,-2.7902,-2.7981,-2.7995,-2.8026,-2.8043,-2.8,-2.8096,-2.8104,-2.8206,-2.8245,-2.8262,-2.8282,-2.8236,-2.841,-2.8427,-2.8442,-2.8497,-2.8519,-2.8257,-2.8256,-2.8255,-2.8255,0,-2.8016,-2.8072,-2.8132,-2.8164,-2.8193,-2.8264,-2.8241,-2.8274,-2.8247,-2.8239,-2.832,-2.8327,-2.8368,-2.839,-2.8364,-2.8488,-2.8464,-2.8416,-2.834,-2.8473,-2.8524,-2.8545,-2.8266,-2.8264,-2.8262,-2.826,0,0,-2.8238,-2.825,-2.8273,-2.8286,-2.8302,-2.8344,-2.8412,-2.8452,-2.8482,-2.8505,-2.8561,-2.8627,-2.8583,-2.8604,-2.8579,-2.863,-2.8758,-2.8575,-2.8575,-2.8609,-2.8894,-2.893,-2.8955,-2.873,-2.8733,-2.8737,-2.8892,0,-2.8394,-2.8511,-2.8482,-2.8598,-2.8649,-2.859,-2.8649,-2.8665,-2.8658,-2.87,-2.8692,-2.874,-2.8678,-2.869,-2.8738,-2.8732,-2.8814,-2.872,-2.8781,-2.8784,-2.8779,-2.8982,-2.902,-2.9167,-2.8912,-2.8915,-2.8918,0,-2.8591,-2.8622,-2.8743,-2.875,-2.8771,-2.8824,-2.8858,-2.8899,-2.8916,-2.8907,-2.893,-2.8895,-2.8961,-2.8884,-2.8975,-2.8911,-2.8934,-2.8935,-2.894,-2.8945,-2.8859,-2.8992,-2.9213,-2.9236,-2.8949,-2.8946,-2.8944,0,-2.8742,-2.8814,-2.8895,-2.8908,-2.8919,-2.8958,-2.8964,-2.8976,-2.9002,-2.9031,-2.9047,-2.9084,-2.9105,-2.9134,-2.9109,-2.9055,-2.9204,-2.9125,-2.9198,-2.9199,-2.9233,-2.9231,-2.9461,-2.9247,-2.9247,-2.9247,-2.9246,0,-2.8919,-2.8995,-2.8963,-2.9013,-2.9097,-2.9062,-2.9146,-2.9145,-2.9156,-2.9205,-2.9156,-2.9203,-2.9167,-2.9211,-2.9192,-2.927,-2.9279,-2.9274,-2.9268,-2.9279,-2.928,-2.9294,-2.9283,-2.9252,-2.9251,-2.925,-2.9249,0,-2.9101,-2.9083,-2.9168,-2.917,-2.9173,-2.9234,-2.9236,-2.9282,-2.9272,-2.9334,-2.9346,-2.933,-2.9379,-2.9357,-2.9408,-2.9395,-2.9495,-2.9475,-2.949,-2.9485,-2.956,-2.9554,-2.9808,-2.9839,-2.9605,-2.9607,-2.9609,0,-2.9216,-2.9273,-2.9282,-2.9311,-2.9321,-2.9368,-2.9394,-2.9362,-2.9391,-2.9414,-2.9458,-2.9502,-2.9536,-2.9616,-2.9608,-2.9647,-2.9628,-2.9714,-2.9633,-2.9642,-2.9629,-2.9627,-2.9632,-2.973,-2.9733,-2.9735,-2.9737,0,-2.9422,-2.9409,-2.9449,-2.9485,-2.9517,-2.9544,-2.9567,-2.9594,-2.9562,-2.9597,-2.9646,-2.9673,-2.9724,-2.9769,-2.9802,-2.9808,-2.9768,-2.9763,-2.9782,-2.9794,-2.98,-2.9798,-2.9535,-2.9757,-2.9755,-2.9754,-2.9753,-2.9752,-2.9574,-2.9622,-2.9636,-2.9681,-2.9694,-2.9717,-2.976,-2.9755,-2.9795,-2.9835,-2.9814,-2.9871,-2.9885,-2.9926,-2.9937,-2.9981,-2.9947,-2.9974,-2.9982,-2.9989,-2.9999,-2.9792,-2.9987,-2.9986,-2.9985,-2.9985,-2.9985,0,-2.9777,-2.9783,-2.9825,-2.9858,-2.9894,-2.9852,-2.9875,-2.9907,-2.9959,-2.9975,-3.0009,-3.0065,-3.0108,-3.0104,-3.0142,-3.0179,-3.0161,-3.019,-3.0187,-3.0189,-3.0027,-3.0007,-3.0203,-3.0203,-3.0203,-3.0203,-3.0203,-3.0203,-2.9887,-2.9966,-2.9956,-3.0041,-3.0045,-3.0102,-3.0118,-3.0138,-3.0151,-3.0216,-3.0251,-3.0248,-3.0256,-3.0295,-3.0332,-3.0329,-3.0346,-3.0382,-3.0373,-3.0222,-3.02,-3.018,-3.0161,-3.0386,-3.0386,-3.0531,-3.0532,-3.0533]},{"header":{"parameterUnit":"m.s-1","parameterCategory":1,"la1":30.2991,"la2":30.254,"lo1":-89.0895,"lo2":-89.0444,"dy":0.0017,"dx":0.0017,"nx":28,"ny":28,"refTime":"2024-12-23T09:00:00:Z","depth":0,"parameterNumber":3,"parameterNumberName":"V-component_of_WINDS"},"data":[0,0,0,0,0,0,0,0,0,0,0,0,0,0,0,0,0,0,0,0,0,0,0,0,0,0,0,0,0,0,0,0,0,0,0,0,0,0,0,0,0,0,0,0,0,0,0,0,0,0,0,0,0,0,0,0,0,0,-2.4503,-2.4503,0,-2.4508,-2.4508,-2.4508,-2.4464,-2.4463,-2.4462,-2.4461,-2.4466,-2.4467,-2.4469,0,0,0,0,0,0,0,0,0,0,0,0,0,-2.4453,-2.4454,-2.4503,-2.4503,-2.4503,-2.4508,-2.4508,-2.4508,-2.4464,-2.4463,-2.4461,-2.446,-2.4466,-2.4467,-2.4469,0,0,0,0,0,0,0,0,0,0,0,0,0,-2.4468,-2.4454,-2.4503,-2.4482,-2.448,-2.4508,-2.4508,-2.4508,-2.4465,-2.4463,-2.4461,-2.4459,-2.4465,-2.4467,-2.4469,-2.4518,0,0,-2.4475,-2.4476,0,0,0,0,0,0,0,0,-2.4467,-2.447,-2.4485,-2.4483,-2.4481,-2.4484,-2.4493,-2.4512,-2.4465,-2.4471,-2.4461,-2.4458,-2.4473,-2.4474,-2.448,-2.4518,-2.4518,-2.4475,-2.4476,-2.4477,-2.4477,0,0,0,0,0,0,0,-2.4466,-2.447,-2.4505,-2.4485,-2.4483,-2.4471,-2.4472,-2.4496,-2.4482,-2.447,-2.4467,-2.4468,-2.4472,-2.4478,-2.4479,-2.4518,-2.4475,-2.4477,-2.4478,-2.4479,-2.4595,-2.4597,0,0,0,0,0,0,-2.4468,-2.4469,-2.4505,-2.4505,-2.447,-2.4474,-2.4474,-2.4485,-2.4482,-2.448,-2.447,-2.4466,-2.4475,-2.4477,-2.4479,-2.4535,-2.4477,-2.4479,-2.448,-2.4593,-2.4596,-2.4598,0,0,0,0,0,0,-2.4467,-2.4472,-2.4505,-2.4486,-2.4489,-2.4477,-2.4489,-2.4486,-2.4492,-2.4482,-2.4479,-2.4478,-2.4474,-2.4477,-2.4508,-2.4535,-2.448,-2.4481,-2.4591,-2.4594,-2.4597,-2.4647,0,0,0,0,0,0,-2.4466,-2.4472,-2.4491,-2.4487,-2.4491,-2.4534,-2.4491,-2.4487,-2.4495,-2.449,-2.4489,-2.4487,-2.4473,-2.4506,-2.451,-2.4536,-2.4483,-2.4589,-2.4592,-2.4596,-2.4643,-2.4652,-2.4659,0,0,0,0,0,-2.4465,-2.4505,-2.4492,-2.4496,-2.4514,-2.4535,-2.4537,-2.4521,-2.4497,-2.4516,-2.4509,-2.4487,-2.4531,-2.4509,-2.4514,-2.4541,-2.4587,-2.4591,-2.4596,-2.464,-2.465,-2.4659,0,0,0,0,0,0,-2.4512,-2.4504,-2.4489,-2.453,-2.4534,-2.4528,-2.4551,-2.4532,-2.4542,-2.4538,-2.4516,-2.4516,-2.4551,-2.4549,-2.4525,-2.4587,-2.4555,-2.456,-2.4587,-2.4597,-2.4604,-2.4603,-2.4485,0,0,0,0,0,-2.4528,-2.4546,-2.4538,-2.4575,-2.4577,-2.4564,-2.4572,-2.4559,-2.4562,-2.4563,-2.4559,-2.4562,-2.4577,-2.4587,-2.46,-2.4643,-2.4641,-2.4664,-2.4672,-2.4679,-2.4683,-2.4704,-2.4714,-2.4612,-2.4612,-2.4612,0,0,-2.456,-2.4557,-2.457,-2.4584,-2.4585,-2.4604,-2.4565,-2.4587,-2.4601,-2.4566,-2.4595,-2.4593,-2.4595,-2.4632,-2.4648,-2.4632,-2.4711,-2.4684,-2.4689,-2.469,-2.471,-2.4719,-2.4728,-2.4615,-2.4615,-2.4614,0,0,-2.4626,-2.4628,-2.4657,-2.4659,-2.4661,-2.4652,-2.4659,-2.4656,-2.4652,-2.4681,-2.4655,-2.4671,-2.4697,-2.4699,-2.4704,-2.4771,-2.475,-2.4776,-2.4816,-2.4837,-2.4845,-2.4852,-2.4874,-2.4883,-2.4781,-2.4781,-2.4781,0,-2.4666,-2.4693,-2.4675,-2.4698,-2.4704,-2.4674,-2.4703,-2.4706,-2.4712,-2.4717,-2.4699,-2.4729,-2.4729,-2.4766,-2.4782,-2.4787,-2.4794,-2.4775,-2.4845,-2.4852,-2.4858,-2.4879,-2.4888,-2.4784,-2.4783,-2.4783,-2.4783,0,-2.474,-2.4759,-2.4783,-2.4789,-2.4798,-2.4825,-2.481,-2.4821,-2.4807,-2.4799,-2.4828,-2.4827,-2.4838,-2.4846,-2.4833,-2.4881,-2.487,-2.4849,-2.4816,-2.4871,-2.489,-2.4898,-2.4788,-2.4787,-2.4786,-2.4785,0,0,-2.4837,-2.4832,-2.4841,-2.4843,-2.4843,-2.4857,-2.4882,-2.4892,-2.4902,-2.4907,-2.4926,-2.4949,-2.4929,-2.4934,-2.4921,-2.4939,-2.499,-2.4916,-2.4915,-2.4928,-2.5041,-2.5056,-2.5065,-2.4977,-2.4979,-2.498,-2.504,0,-2.4901,-2.4942,-2.4926,-2.4968,-2.4985,-2.4956,-2.4977,-2.4979,-2.4973,-2.4986,-2.4979,-2.4994,-2.4968,-2.497,-2.4988,-2.4981,-2.5012,-2.4976,-2.4994,-2.4995,-2.4992,-2.5076,-2.5091,-2.5148,-2.5048,-2.5049,-2.505,0,-2.4981,-2.4989,-2.5032,-2.5028,-2.5034,-2.5054,-2.5061,-2.5075,-2.5076,-2.507,-2.5075,-2.5058,-2.5081,-2.5049,-2.5079,-2.5055,-2.5061,-2.5059,-2.5061,-2.506,-2.5024,-2.5076,-2.5166,-2.5174,-2.5062,-2.5061,-2.506,0,-2.5045,-2.5067,-2.5095,-2.5098,-2.5094,-2.5108,-2.5107,-2.5106,-2.5113,-2.512,-2.5124,-2.5135,-2.514,-2.5148,-2.5133,-2.5111,-2.5165,-2.5132,-2.516,-2.516,-2.5171,-2.517,-2.5262,-2.5178,-2.5178,-2.5178,-2.5178,0,-2.5117,-2.5144,-2.5123,-2.5141,-2.517,-2.5151,-2.5181,-2.5177,-2.5177,-2.5192,-2.5169,-2.5184,-2.5164,-2.5177,-2.5166,-2.5192,-2.5195,-2.519,-2.5187,-2.5191,-2.5192,-2.5194,-2.5189,-2.518,-2.518,-2.5179,-2.5179,0,-2.5193,-2.518,-2.5209,-2.5202,-2.5201,-2.5223,-2.5218,-2.5233,-2.5225,-2.5245,-2.5249,-2.5236,-2.525,-2.5236,-2.525,-2.5242,-2.5277,-2.5269,-2.5276,-2.5273,-2.5301,-2.5298,-2.5396,-2.5407,-2.5318,-2.5319,-2.5319,0,-2.5239,-2.5259,-2.5254,-2.5263,-2.5263,-2.5278,-2.5284,-2.5267,-2.5275,-2.5277,-2.5292,-2.5304,-2.5313,-2.5337,-2.5328,-2.5338,-2.5329,-2.5363,-2.533,-2.5334,-2.5327,-2.5325,-2.5327,-2.5369,-2.537,-2.5371,-2.5371,0,-2.5321,-2.5313,-2.5324,-2.5332,-2.5341,-2.5347,-2.5351,-2.5359,-2.5341,-2.5351,-2.5365,-2.5372,-2.5385,-2.5397,-2.5404,-2.5403,-2.5384,-2.5382,-2.5388,-2.5392,-2.5395,-2.5392,-2.5292,-2.5379,-2.5378,-2.5378,-2.5377,-2.5377,-2.5382,-2.5398,-2.5397,-2.5409,-2.541,-2.5414,-2.5428,-2.5421,-2.5432,-2.5441,-2.543,-2.5447,-2.5447,-2.5455,-2.5456,-2.5468,-2.5454,-2.5464,-2.5466,-2.5468,-2.5471,-2.5395,-2.547,-2.5469,-2.5469,-2.5469,-2.5469,0,-2.5461,-2.5459,-2.547,-2.5476,-2.5486,-2.5467,-2.547,-2.5479,-2.5494,-2.5496,-2.5504,-2.552,-2.5531,-2.5524,-2.5533,-2.5545,-2.5536,-2.5547,-2.5546,-2.5545,-2.5485,-2.5477,-2.5554,-2.5554,-2.5554,-2.5554,-2.5554,-2.5554,-2.5503,-2.5529,-2.5521,-2.5546,-2.5544,-2.556,-2.5563,-2.5566,-2.5567,-2.5585,-2.5594,-2.5589,-2.5587,-2.5596,-2.5605,-2.5602,-2.5606,-2.5621,-2.5615,-2.5558,-2.555,-2.5542,-2.5534,-2.5622,-2.5622,-2.5674,-2.5675,-2.5675]}]]